GFSFLT1_con_3kmhel_324.txt.gz
Helicity
11 40 51 63 52 178 129 142 148 167 159 126 114 115 133 159 128 120 112 112 88 101 107 110 96 94 95 96 92 88 87 99
73 37 48 63 59 106 148 118 165 189 211 173 178 124 119 104 158 99 106 122 108 117 117 100 92 87 87 97 117 112 108 105
89 73 55 67 62 71 89 127 136 165 229 184 136 132 121 125 153 151 105 123 123 121 109 102 89 89 101 128 111 140 98 69
104 80 73 75 75 100 106 132 164 124 144 132 118 129 127 152 130 166 116 122 119 118 109 104 93 86 120 126 106 98 112 69
107 91 77 69 74 99 104 164 125 102 104 128 109 160 150 151 164 126 137 111 119 127 112 106 94 98 94 90 86 68 77 99
78 114 76 75 77 132 144 130 89 103 119 150 147 113 132 161 174 143 138 114 96 119 122 115 99 109 92 81 80 49 59 73
103 89 79 80 67 134 164 129 117 109 123 144 179 122 130 150 189 187 162 144 141 131 134 131 113 103 101 88 70 61 62 62
110 58 60 73 63 156 185 138 139 126 139 150 180 159 150 163 196 244 192 187 179 173 167 150 140 111 97 84 76 66 66 69
226 118 66 67 57 146 180 175 133 140 131 157 223 197 185 177 171 209 241 246 229 174 184 165 136 125 116 93 88 78 66 69
202 262 255 71 72 90 165 178 117 113 138 158 211 218 168 176 136 170 198 219 256 225 183 189 167 140 125 121 109 79 77 76
240 276 245 230 85 90 117 141 69 114 169 162 193 217 193 193 183 142 160 187 204 196 197 179 178 175 147 125 110 88 88 98
236 283 248 195 150 74 128 113 87 104 125 170 168 160 184 172 190 159 164 173 194 224 185 179 192 185 163 146 129 106 102 109
243 267 265 370 139 80 100 131 120 101 96 110 171 160 140 169 145 138 147 156 151 167 172 168 182 183 165 141 130 134 117 107
407 431 407 406 441 111 111 107 120 123 128 122 143 166 148 179 180 150 120 152 127 114 114 134 130 149 165 140 117 109 112 119
639 656 645 627 549 485 288 115 102 120 130 142 157 152 191 193 183 171 175 145 131 96 105 97 108 102 124 151 117 131 132 128
928 870 841 756 659 566 475 411 137 115 137 155 111 176 179 215 227 198 210 198 160 136 104 112 98 101 139 146 159 148 181 158
1085 974 1088 1012 763 676 528 469 379 251 129 123 141 185 222 219 256 323 296 210 178 141 185 166 155 148 146 165 160 168 123 143
1194 1027 1029 1066 919 669 685 566 464 405 403 256 197 239 245 252 280 285 282 257 205 191 180 209 159 139 126 138 114 79 126 189
1011 970 970 1055 781 739 618 631 629 560 544 515 473 255 290 288 299 302 241 249 283 199 193 212 211 184 153 138 149 145 102 117

GFSFLT1_con_3kmhel_327.txt.gz
Helicity
32 36 38 70 84 115 100 115 113 125 182 126 128 180 204 249 231 226 154 109 104 110 103 82 98 65 93 90 97 111 114 141
42 44 50 68 85 141 124 165 133 161 193 158 130 147 227 262 307 220 255 115 88 95 104 155 102 80 89 138 125 118 139 206
37 39 50 68 98 140 137 206 172 189 247 196 140 108 174 208 197 221 143 67 109 92 104 104 49 101 119 145 167 171 159 89
60 41 54 59 104 141 129 234 176 201 226 250 143 121 117 179 168 120 107 57 112 111 153 116 105 122 143 171 138 122 104 44
80 54 41 63 95 113 112 218 204 200 193 220 137 194 138 158 190 189 117 118 143 115 161 125 125 124 167 142 105 85 83 62
69 55 37 39 108 115 151 231 235 193 154 147 209 194 180 161 175 186 197 183 159 124 161 139 147 139 165 118 92 82 88 77
15 37 34 32 146 184 184 202 232 180 147 113 167 222 209 194 179 197 217 216 210 146 147 149 173 143 156 118 81 72 91 64
279 180 30 34 122 203 261 189 220 205 147 101 160 198 225 202 201 239 194 251 267 214 165 168 189 163 173 140 93 80 72 64
668 443 303 200 59 111 105 199 219 210 143 110 189 166 245 237 197 236 253 255 251 256 216 184 164 162 172 154 137 107 76 76
347 470 524 350 283 155 158 95 209 181 176 155 143 139 217 206 235 213 247 220 224 230 267 258 197 171 155 181 163 130 109 95
128 210 329 336 394 223 221 155 188 217 148 202 209 197 169 198 245 245 203 199 189 206 249 265 241 194 172 169 155 146 126 125
229 226 254 183 371 300 136 133 161 177 179 173 225 252 155 152 215 241 240 210 189 219 212 230 242 236 212 181 169 158 139 130
441 381 361 314 273 537 159 100 118 149 147 162 213 210 199 160 159 197 192 192 189 198 227 196 207 223 236 205 179 173 144 139
749 607 539 525 387 400 440 117 101 62 123 172 240 236 198 145 161 197 180 179 177 163 182 166 159 160 185 184 187 175 181 158
1102 902 812 576 503 530 454 469 75 107 99 173 233 201 190 196 156 194 197 169 165 174 181 178 174 166 161 157 143 149 155 158
1159 1176 962 748 673 733 710 735 545 172 120 84 176 168 163 151 181 171 195 185 172 179 180 186 170 139 153 143 148 143 158 163
991 1311 1166 970 741 768 776 769 668 413 213 240 98 100 143 191 204 225 208 201 188 162 156 155 157 181 181 181 189 197 180 199
611 920 1233 1094 924 760 765 754 646 587 442 501 371 106 118 182 213 209 191 210 189 219 194 155 153 185 239 242 233 225 210 157
156 405 626 1168 1115 981 775 799 742 627 575 636 578 361 158 195 225 225 242 258 279 298 308 256 206 214 178 204 202 241 218 172

GFSFLT1_con_3kmhel_330.txt.gz
Helicity
10 26 64 98 82 341 367 271 195 110 158 212 195 250 223 279 267 89 -16 -36 21 29 82 77 45 145 130 160 202 192 184 205
64 55 82 121 91 358 378 254 213 164 119 234 244 218 201 284 200 59 11 148 105 20 35 22 67 146 162 125 194 226 198 244
47 83 76 154 142 348 357 276 271 169 112 182 239 285 248 290 324 204 258 233 133 22 80 88 97 129 194 167 186 219 191 172
62 51 38 47 168 312 331 329 300 191 166 139 239 203 275 341 365 321 220 175 124 41 110 126 141 206 202 183 205 218 164 71
108 71 29 26 108 310 340 368 325 229 211 173 149 271 258 322 388 408 322 226 43 63 113 98 136 196 213 220 208 206 152 76
392 293 167 7 -10 321 365 422 353 256 243 185 271 257 220 252 332 317 273 211 18 42 -9 100 114 132 229 225 203 196 109 104
406 385 288 197 136 373 395 491 423 344 252 235 216 179 231 256 300 303 243 139 65 -40 -10 139 156 148 233 221 198 157 93 86
383 399 371 282 307 530 246 466 392 379 346 234 192 144 172 282 302 318 292 157 116 83 80 188 243 158 212 214 173 122 105 116
202 288 253 203 356 502 520 289 413 377 355 301 188 146 117 295 372 331 340 282 242 187 160 237 256 207 224 195 177 165 141 126
214 165 38 23 149 356 386 600 236 369 350 327 254 200 113 255 337 388 317 263 237 256 206 222 256 263 209 200 194 171 152 131
179 245 30 -35 -40 118 141 135 600 236 368 316 294 219 135 199 350 312 326 227 212 224 205 258 271 254 226 253 242 191 172 151
330 271 245 52 -160 -138 37 152 444 122 335 284 265 203 188 194 284 294 273 270 234 218 228 246 256 225 204 240 241 229 178 173
464 541 494 282 -34 -227 -93 -3 228 189 253 242 219 198 241 221 256 266 274 264 255 225 209 216 229 225 232 213 225 206 193 180
730 816 650 599 352 11 -86 -33 117 363 98 189 181 205 295 343 311 282 254 260 244 229 206 219 220 227 225 234 231 230 192 193
559 974 895 814 658 334 49 104 172 306 190 165 92 236 239 271 280 239 234 259 243 212 221 226 216 209 209 212 220 212 206 191
219 821 894 1115 838 623 443 351 402 505 232 51 101 196 256 297 274 228 242 222 215 223 214 235 215 182 200 193 198 203 195 178
146 263 331 892 959 811 732 699 585 765 592 435 410 210 150 260 205 220 178 249 204 189 188 255 202 194 165 175 192 193 176 186
109 127 255 482 659 782 896 1015 747 780 738 608 419 624 210 261 169 205 176 182 225 183 163 196 267 294 233 194 189 217 217 224
45 69 148 193 517 465 786 1040 990 693 742 739 543 686 324 288 154 124 192 199 229 177 180 194 242 327 329 284 214 218 202 225

GFSFLT1_con_3kmhel_336.txt.gz
Helicity
214 325 431 466 386 130 284 318 293 295 254 232 227 292 264 234 332 362 343 266 186 132 109 120 141 118 143 158 144 151 228 225
72 199 332 409 518 505 159 276 332 375 302 262 321 298 310 262 363 406 413 356 391 192 130 120 155 138 126 153 172 219 310 332
85 217 297 332 446 589 606 325 252 374 374 272 348 386 380 353 355 368 343 234 238 339 296 148 137 151 179 184 215 277 355 274
74 172 376 350 447 524 591 555 318 226 344 347 330 357 330 315 304 294 256 297 239 269 293 399 117 103 160 216 266 266 280 202
72 111 357 400 431 396 474 577 447 203 250 314 402 376 366 312 339 323 245 240 209 254 267 174 137 76 114 223 289 314 305 204
202 127 288 358 399 386 416 507 550 393 272 221 311 342 267 388 410 324 266 124 198 201 62 13 97 145 95 197 235 314 205 231
246 181 258 410 420 442 477 482 510 500 391 302 225 235 336 392 353 309 274 192 134 65 -37 -6 173 96 207 213 243 214 232 200
317 315 225 490 487 526 481 544 500 467 494 319 410 209 269 379 387 331 256 302 212 45 36 107 150 138 152 243 187 133 160 157
218 330 214 305 541 543 571 530 590 438 436 436 318 372 235 246 277 241 376 345 297 131 111 155 131 149 183 113 155 132 139 171
253 260 192 209 433 534 558 566 563 561 402 437 390 260 207 221 201 327 273 304 258 205 181 181 224 223 143 85 111 82 101 174
350 268 239 125 238 398 389 474 532 596 489 337 371 248 309 144 201 258 297 275 280 242 219 232 252 259 123 92 24 32 76 153
177 201 247 167 136 282 290 337 481 555 620 491 350 326 253 108 169 249 266 283 243 271 208 226 222 187 133 131 51 132 133 178
91 94 178 152 114 153 223 290 345 473 478 455 391 274 185 132 121 140 232 300 249 211 264 191 202 124 91 55 105 123 140 159
83 91 173 184 184 164 135 206 324 385 469 356 338 358 354 255 81 153 170 295 290 239 230 227 181 137 104 182 169 187 162 226
98 92 54 221 176 212 130 188 259 398 371 364 325 334 375 311 318 117 196 230 326 256 246 214 201 184 190 232 247 176 204 230
96 120 71 53 142 217 198 207 234 306 369 324 310 325 312 258 240 225 123 202 266 316 280 276 237 258 253 234 266 227 218 229
77 82 83 67 113 129 228 253 255 280 395 405 298 285 309 271 256 187 85 140 178 272 348 322 272 297 263 233 239 259 248 266
37 43 20 8 42 21 124 197 211 265 477 563 529 348 280 279 224 150 176 106 202 266 253 325 325 284 302 264 254 249 285 275
-24 4 -16 -9 16 16 50 181 210 237 448 669 673 566 458 382 283 222 176 190 72 196 237 326 266 263 298 301 283 247 247 244

GFSFLT1_con_3kmhel_339.txt.gz
Helicity
181 197 258 234 326 441 356 261 60 127 178 259 203 256 184 256 233 245 227 219 213 225 168 114 158 176 213 197 188 208 200 191
141 109 207 235 255 431 436 375 250 201 186 229 264 190 299 293 294 284 329 249 324 156 242 130 119 105 124 173 210 192 221 244
138 204 187 267 212 282 428 402 409 281 146 206 170 189 281 265 321 365 353 378 356 253 300 136 113 128 155 179 187 224 226 195
37 213 232 227 269 269 341 371 427 391 286 123 227 211 282 244 290 365 362 389 319 212 50 135 242 234 180 174 198 194 211 183
21 148 236 251 263 289 291 360 374 422 391 196 170 220 251 187 296 437 477 309 331 298 97 125 203 245 165 177 213 246 231 227
68 173 229 254 258 254 292 342 352 468 533 345 280 204 178 156 267 308 456 429 372 193 214 169 167 294 225 175 195 204 233 234
231 241 292 273 294 299 261 350 373 449 501 517 408 152 190 190 207 286 379 445 314 224 177 156 251 356 334 159 108 164 229 257
305 323 381 380 383 376 279 339 408 368 559 506 383 379 180 200 208 257 301 404 394 275 237 145 189 264 244 180 187 209 231 254
333 316 346 392 407 439 345 326 404 396 456 475 405 297 205 168 218 258 257 319 356 402 263 202 178 130 90 19 95 205 250 261
271 293 313 382 392 392 395 345 381 365 393 474 373 365 369 134 153 211 201 222 227 242 288 278 229 186 141 171 143 210 218 227
144 189 267 313 377 357 342 347 363 361 329 389 342 336 283 403 245 175 141 182 231 270 304 268 239 212 223 217 149 124 228 229
109 122 147 200 278 422 352 309 414 401 357 391 373 296 338 496 360 18 144 182 240 266 332 252 274 249 244 270 202 163 210 202
131 87 89 170 226 346 471 346 393 410 333 297 358 323 290 304 263 212 127 151 223 263 322 247 268 288 333 280 267 186 221 153
72 131 112 97 150 238 413 398 378 313 291 247 288 364 325 366 431 416 329 76 150 208 273 290 247 281 306 317 279 244 193 88
5 32 81 105 102 130 252 416 372 384 228 210 206 314 346 301 333 372 372 325 100 150 184 247 315 261 254 287 316 243 93 15
-20 -15 -1 40 91 100 144 237 268 352 332 200 212 220 316 289 266 274 285 396 307 142 130 199 247 357 204 268 260 257 179 122
-59 -40 -32 -10 54 62 69 171 244 192 259 280 183 221 244 269 269 247 192 270 307 262 83 177 290 312 248 175 289 258 240 195
-83 -85 -65 -38 32 43 40 110 153 112 201 266 192 205 270 273 270 254 180 225 243 273 154 113 188 255 306 291 199 280 291 267
-65 -84 -58 -23 17 19 11 33 92 86 123 228 259 211 276 305 294 274 240 197 206 183 197 42 162 172 303 352 367 221 244 254

GFSFLT1_con_3kmhel_345.txt.gz
Helicity
276 257 208 196 177 162 150 231 251 233 205 179 202 97 98 155 156 226 203 219 288 321 329 283 314 260 345 305 292 300 268 257
225 257 227 186 162 200 174 199 274 224 239 232 150 171 109 142 155 193 199 218 262 267 239 233 426 212 315 351 297 450 292 287
293 293 269 223 176 153 196 194 222 213 230 299 156 160 134 118 145 146 165 160 249 270 337 320 381 287 284 271 465 289 367 318
229 263 274 261 209 172 163 173 182 190 232 241 235 206 208 120 159 135 159 195 268 396 390 232 228 274 321 364 289 340 503 337
290 257 273 280 264 186 183 167 170 193 199 216 290 198 209 154 84 140 167 175 304 446 413 280 240 205 290 279 65 319 485 325
211 194 172 194 198 196 170 178 179 205 212 195 220 290 221 249 210 115 140 151 250 292 360 287 236 195 143 198 87 253 296 383
161 150 158 173 215 211 186 183 197 231 259 216 237 333 276 269 286 148 134 164 183 287 404 416 224 150 114 54 9 118 184 238
187 164 175 182 224 270 247 214 202 235 264 267 231 236 311 246 313 237 173 158 161 189 374 332 219 174 186 160 152 106 154 122
122 134 101 139 181 228 260 266 232 202 251 297 233 203 215 165 242 242 174 160 84 165 207 302 331 241 231 200 206 213 203 187
89 86 58 82 121 153 219 245 244 213 210 260 267 207 235 276 264 246 181 131 107 52 202 229 339 393 239 221 213 212 211 213
39 56 55 40 62 86 128 197 229 225 181 224 239 242 207 245 210 231 174 212 224 93 137 178 276 332 510 372 204 209 305 231
-0 6 18 22 24 46 96 150 202 249 257 245 242 220 243 257 235 133 248 218 260 280 60 91 167 266 351 361 362 238 262 288
-22 -22 -7 9 21 34 68 123 172 207 245 259 275 196 205 245 265 220 226 242 293 355 269 85 120 228 319 446 325 342 334 255
-15 -26 -14 5 11 19 38 83 121 181 242 283 298 273 212 202 288 218 166 192 258 241 274 304 153 135 238 347 222 270 292 258
-21 -14 7 9 18 10 27 55 69 97 191 289 327 286 240 235 280 237 169 121 147 206 274 268 164 164 63 64 205 234 243 248
-10 -27 -1 18 11 20 33 38 38 59 102 249 357 315 217 245 240 283 217 165 125 127 131 123 218 209 70 -92 32 192 210 245
-14 -22 -13 13 12 28 28 31 42 28 65 118 284 321 279 249 241 281 251 208 155 146 162 153 155 90 180 103 -9 116 233 209
-28 -25 -16 -5 5 12 41 34 21 28 31 55 132 248 313 305 277 286 330 273 209 144 173 185 143 110 81 162 -19 50 102 201
-28 -31 -12 -0 2 10 26 34 28 25 34 36 75 150 214 315 318 294 331 382 274 204 161 153 169 175 187 245 236 -24 -2 94

GFSFLT1_con_3kmhel_348.txt.gz
Helicity
158 169 130 94 70 89 115 165 171 169 124 131 143 131 165 101 92 109 66 185 204 327 316 273 264 166 171 216 200 208 231 198
188 195 164 158 83 62 82 126 166 140 131 138 154 167 173 132 83 80 98 136 178 222 309 353 255 233 189 166 221 189 260 248
150 261 244 194 147 119 94 55 129 131 94 145 121 183 172 161 136 105 85 97 86 187 309 339 371 315 178 142 183 301 318 365
145 197 284 272 204 152 144 103 77 138 134 107 156 139 168 215 243 142 89 79 99 135 207 360 339 316 272 304 252 276 381 418
170 170 231 301 283 215 141 118 87 112 153 120 159 122 159 226 228 212 174 77 115 130 177 307 283 324 238 196 223 359 517 410
164 142 169 204 175 174 170 153 120 113 162 143 125 167 149 183 207 251 250 88 106 110 153 218 293 288 206 170 211 211 323 469
95 96 93 117 140 118 133 126 105 120 140 182 174 185 214 174 230 213 266 201 106 171 156 225 236 241 185 196 221 240 270 322
88 95 93 96 141 151 141 150 110 113 144 153 197 186 207 219 206 202 242 302 165 109 176 187 269 274 268 151 145 227 256 194
49 55 54 69 96 140 155 181 160 113 140 169 141 190 159 176 177 158 175 245 205 279 110 177 206 271 302 196 125 119 133 155
22 35 43 59 58 76 117 159 175 120 144 152 160 149 182 173 203 168 161 242 234 186 178 120 199 174 160 151 174 110 80 135
15 20 27 33 36 34 54 101 130 132 129 159 156 154 159 146 160 186 158 153 186 251 191 96 127 174 158 189 240 213 159 168
10 9 13 19 23 21 31 54 106 125 155 171 191 175 155 159 128 173 148 171 254 212 279 271 90 126 142 145 144 233 216 143
10 18 20 21 23 39 25 35 62 98 153 188 181 199 178 160 177 178 184 151 183 217 258 250 220 101 141 149 136 111 320 294
-5 9 30 30 27 27 44 37 36 61 122 179 206 196 212 205 177 198 200 178 179 235 232 241 270 222 88 118 127 152 143 283
-16 -7 18 34 28 31 43 49 38 35 79 132 192 217 204 209 195 212 214 152 138 172 229 251 201 274 183 112 92 81 143 163
-21 -9 9 19 34 28 41 55 47 38 43 91 133 183 163 196 213 224 229 181 113 140 156 179 205 250 243 336 236 119 123 124
-21 -3 8 16 30 28 33 51 53 46 35 57 98 129 163 204 216 240 237 219 172 171 168 178 138 114 262 286 260 176 95 20
-6 8 6 6 17 15 24 40 53 34 28 34 57 100 143 165 207 249 231 264 192 173 186 222 224 117 188 228 212 84 93 56
-13 -9 4 5 3 7 17 26 41 42 22 30 43 61 126 140 170 246 242 256 239 178 186 207 204 146 202 276 308 116 69 34

GFSFLT1_con_3kmhel_351.txt.gz
Helicity
125 131 109 101 36 40 79 107 123 116 120 118 90 116 110 134 135 102 46 48 127 173 168 131 188 229 233 402 191 182 190 150
79 85 87 89 66 17 42 46 135 89 93 131 115 128 168 135 192 186 70 54 110 177 222 187 213 257 227 127 248 246 216 173
61 36 102 107 70 69 70 38 33 65 78 103 95 125 111 181 173 222 261 68 45 135 177 221 254 259 178 171 237 248 297 261
93 63 79 152 128 91 96 100 59 78 77 73 109 107 114 128 174 224 259 234 146 89 176 161 213 229 185 241 259 238 218 269
8 42 102 129 145 138 116 100 99 65 141 66 111 93 122 119 153 175 251 238 217 42 115 192 172 186 374 303 255 186 197 181
16 20 45 104 122 142 143 137 137 80 121 135 64 106 86 108 131 156 212 243 245 161 79 173 182 258 283 455 197 91 262 262
26 14 10 50 89 107 100 148 144 114 118 138 159 115 118 99 132 127 143 177 264 301 108 104 162 185 283 250 157 237 258 224
17 31 21 51 84 117 102 126 150 88 109 131 126 151 135 105 105 97 155 150 213 286 330 193 178 187 172 153 258 161 145 225
-5 6 10 33 63 78 97 125 125 89 89 116 121 110 106 99 75 72 123 113 166 246 282 236 98 166 149 169 156 197 168 240
-11 -7 -6 13 29 50 58 89 126 112 56 86 105 99 115 140 144 84 68 151 145 156 195 262 245 92 164 194 203 174 216 175
-8 -13 -5 -2 8 21 31 41 70 100 87 74 99 90 81 105 125 139 109 127 152 131 157 201 235 143 162 160 153 152 159 148
-7 -12 -8 -6 7 19 23 33 46 52 96 99 117 134 93 94 83 128 128 149 160 189 168 149 210 300 101 133 143 135 189 190
5 -9 -9 -12 7 25 36 28 41 23 42 91 133 145 136 114 109 100 149 159 175 181 151 109 144 261 395 111 106 102 100 227
3 -15 -16 -5 4 31 38 37 33 37 36 64 106 176 168 143 129 106 125 159 205 203 173 168 186 237 250 269 102 112 70 99
8 -11 -20 -3 2 18 37 33 27 34 45 49 98 143 211 170 152 140 134 129 180 205 197 178 155 165 258 274 354 85 76 62
-49 -16 -22 -15 4 12 30 32 29 46 27 55 66 125 164 199 172 158 168 130 160 187 186 200 225 115 161 256 283 275 148 162
25 -14 -14 -18 -2 9 25 33 40 56 47 53 47 109 146 174 207 154 175 171 172 181 183 199 132 136 206 245 231 265 232 225
18 -13 -15 -19 -10 -3 16 31 38 48 55 37 50 61 123 153 159 213 198 198 181 162 187 192 161 111 179 197 213 138 173 116
17 -15 -12 -8 -8 -4 9 17 24 40 56 28 31 40 82 104 139 188 215 214 198 165 176 180 155 112 204 227 234 151 102 56